www.pogodaiklimat.ru

Погода и климат >> Архив погоды >> Вануату >> Анейтьюм


ПОГОДА в Анейтьюме

  • Прогноз погоды в Анейтьюме
  • Монитор погоды в Анейтьюме

АРХИВ ПОГОДЫ в Анейтьюме

Время (UTC), дата Ветер
(напр.,м/с)
 
Видим.   Явления Облачность Т
(С)
Тd
(С)
f
(%)
Тe
(С)
Тes
(С)
Комфортность P
(гПа)
Po
(гПа)
Тmin
(С)
Tmax
(С)
R
(мм)
R24
(мм)
S
(см)
00 12.06 Ю 3 20 км 4/4 750 м
[Cu med, cong]
+25.2 +17.6 63 +29 +35 душно 1016.2 1015.4 +19.8
03 12.06 Ю 4 20 км 4/4 750 м
[Cu med, cong]
+24.8 +17.5 64 +29 +32 душно 1013.8 1013.0
06 12.06 Ю 3 20 км 4/4 750 м
[Cu med, cong]
+22.4 +17.6 74 +27 +27 душно 1014.2 1013.4
09 12.06 Ю 5 20 км 6/6 600 м
[Cu med, cong]
+21.6 +18.8 84 +26 +26 душно 1015.7 1014.9
12 12.06 Ю 2 20 км слаб. ливневой дождь 10/5 540 м
[Cu Sc Ac As]
+21.4 +18.2 82 +26 +26 душно 1016.4 1015.6 +25.6 1
18 12.06 Ю 4 20 км 4/4 600 м
[Cu med, cong]
+19.0 +18.2 95
21 12.06 нст 1 20 км 3/3 750 м
[Cu med, cong]
+20.2 +16.9 81 +24 +27 комфорт 1017.1 1016.3
00 13.06 ЮВ 3 20 км 3/3 750 м
[Cu med, cong]
+25.0 +17.0 61 +29 +35 душно 1016.2 1015.4 +18.4 1
03 13.06 ЮВ 3 20 км 4/4 750 м
[Cu med, cong]
+25.9 +18.2 63 +31 +34 очень
душно
1014.0 1013.2
06 13.06 Ю 3 20 км 6/6 750 м
[Cu med, cong]
+22.6 +16.8 70 +27 +27 душно 1014.6 1013.8
09 13.06 ЮВ 4 20 км 6/6 750 м
[Cu med, cong]
+22.0 +15.4 66 +26 +26 душно 1017.5 1016.7
12 13.06 Ю 3 20 км 5/5 750 м
[Cu med, cong]
+22.0 +15.4 66 +26 +26 душно 1016.1 1015.3 +26.0
21 13.06 ЮВ 2 20 км в посл. час ливневой дождь 9/9 600 м
[Cu Sc]
+22.2 +14.1 60 +25 +26 комфорт 1017.0 1016.2
00 14.06 ЮВ 2 20 км 9/9 600 м
[Cu Sc]
+23.8 +14.8 57 +27 +28 жарко 1017.1 1016.3 +21.2 1
03 14.06 штиль 0 20 км 8/8 600 м
[Cu Sc]
+24.7 +16.5 60 +28 +30 душно 1014.7 1013.9
06 14.06 В 2 20 км 9/9 600 м
[Cu Sc]
+22.7 +14.1 58 +26 +26 жарко 1015.0 1014.2
09 14.06 ЮВ 2 20 км 9/9 600 м
[Cu Sc]
+22.6 +13.7 57 +26 +26 жарко 1016.4 1015.6
12 14.06 ЮВ 2 20 км 10/10 600 м
[Cu Sc]
+22.7 +14.3 59 +26 +26 жарко 1016.4 1015.6
15 14.06 ЮВ 2 20 км 8/3 600 м
[Cu med, cong]
+21.0 +19.4 91 +26 +26 душно 1015.5 1014.7
21 14.06 штиль 0 20 км 10/10 600 м
[Cu Sc]
+20.0 +16.7 81 +22 +22 комфорт 1017.9 1017.1
00 15.06 нст 1 20 км 10/10 600 м
[Cu Sc]
+24.2 +16.1 61 +28 +28 душно 1017.0 1016.2 +20.9
03 15.06 штиль 0 20 км 10/10 600 м
[Cu Sc]
+24.2 +16.1 61 +28 +28 душно 1015.2 1014.4
06 15.06 штиль 0 20 км 10/10 540 м
[Cu Sc]
+22.2 +17.0 72 +27 +27 душно 1015.8 1015.0
09 15.06 штиль 0 20 км 9/9 600 м
[Cu Sc]
+21.0 +16.1 74 +24 +24 комфорт 1017.3 1016.5
21 15.06 штиль 0 20 км слаб. ливневой дождь 10/6 540 м
[Cu Sc As op]
+20.2 +18.9 92 +23 +24 комфорт 1017.8 1017.0
00 16.06 ЮВ 2 20 км в посл. час ливневой дождь 6/6 600 м
[Cu med, cong]
+24.8 +18.2 67 +29 +34 душно 1017.6 1016.8 +18.2 3
03 16.06 ЮВ 3 20 км слаб. ливневой дождь 6/6 540 м
[Cu Sc]
+23.8 +19.1 75 +29 +31 душно 1015.9 1015.1
06 16.06 ЮВ 2 20 км {ливн. осадки} 9/4 600 м
[Cu med, cong Ci fib]
+22.0 +18.4 80 +27 +27 душно 1015.9 1015.1 0.0
09 16.06 ЮВ 2 20 км слаб. ливневой дождь 9/5 540 м
[Cu Sc]
+19.8 +19.5 98 +24 +24 комфорт 1017.8 1017.0
12 16.06 В 2 20 км в посл. час ливневой дождь 8/8 540 м
[Cu Sc]
+18.6 +17.8 95 +20 +20 1017.6 1016.8 +26.2 1
21 16.06 ЮВ 2 20 км 8/4 600 м
[Cu med, cong Ci fib]
+21.4 +17.5 78 +25 +27 комфорт 1016.6 1015.8
00 17.06 ЮВ 3 20 км в посл. час ливневой дождь 8/5 750 м
[Cu med, cong Ci fib]
+24.0 +21.0 83 +30 +34 очень
душно
1016.4 1015.6 +16.0 2
03 17.06 ЮВ 2 20 км слаб. ливневой дождь 9/6 540 м
[Cu Sc As op]
+25.0 +21.4 80 +32 +33 очень
душно
1014.0 1013.2
06 17.06 ЮВ 2 20 км в посл. час ливневой дождь 6/6 750 м
[Cu med, cong]
+23.0 +19.9 83 +30 +30 очень
душно
1014.0 1013.2 0.0
09 17.06 ЮВ 2 20 км {ливн. осадки} 8/8 600 м
[Cu Sc]
+19.1 +19 +19 1015.4 1014.6
12 17.06 штиль 0 20 км {ливн. осадки} 3/3 600 м
[Cu med, cong]
+19.0 +17.4 90 +20 +20 1015.8 1015.0 +26.0
00 18.06 ЮВ 2 20 км 5/3 600 м
[Cu med, cong Ac und]
+25.3 +20.3 74 +31 +37 очень
душно
1014.6 1013.8 +18.1 0.0
03 18.06 ЮВ 2 20 км 8/3 600 м
[Cu med, cong Ac und]
+25.2 +20.3 74 +31 +34 очень
душно
1012.7 1011.9
06 18.06 штиль 0 20 км 5/1 750 м
[Cu hum Cs]
+23.6 +20.9 85 +30 +30 очень
душно
1012.8 1012.0
09 18.06 ЮВ 2 20 км 1/1 750 м
[Cu hum]
+18.7 +18.1 96 +21 +21 комфорт 1014.2 1013.4
12 18.06 штиль 0 20 км в посл. час ливневой дождь 9/9 600 м
[Cu Sc]
+19.9 +19.4 97 +23 +23 комфорт 1014.6 1013.8 +26.8 0.0
15 18.06 штиль 0 20 км 1/1 750 м
[Cu hum]
+22.4 +20.6 90 +29 +29 очень
душно
1012.6 1011.8
18 18.06 штиль 0 20 км {ливн. осадки} 3/3 600 м
[Cu hum]
+19.2 +18.9 98 +21 +21 комфорт 1013.7 1012.9
21 18.06 штиль 0 20 км 1/1 660 м
[Cu hum]
+21.8 +20.6 93 +28 +31 душно 1015.6 1014.8

 

Местоположение метеостанции Анейтьюм (Вануату): широта -20.23 долгота 169.76 высота над уровнем моря 7 м.

В архиве по умолчанию представлена погода в Анейтьюме за последнюю неделю. Архивные данные за месяц целиком и за предыдущие месяцы, начиная с января 2011 года, Вы можете получить, выбрав интересующий диапазон дат из раскрывающегося списка и нажав кнопку "Ввод!".


*Определитесь, кто Вы:
робот инопланетянин человек

Внимание! Время в таблицах - всемирное. Для получения местного времени необходимо прибавить поправку, которая равна 11 ч.

Смотрите также архив погоды в соседних городах и на ближайших метеорологических станциях:

Погода в Уайт Грасс (Вануату) (104 км)
Погода на Эроманге (Вануату) (189 км)
Погода в Ла Рош (Новая Каледония) (227 км)
Погода на Острове Лифу (Новая Каледония) (270 км)
Погода в Порт-Виле (Вануату) (321 км)
Погода на Острове Увеа (Новая Каледония) (335 км)
Погода на Острове Пен (Новая Каледония) (356 км)
Погода в Нумеа (Новая Каледония) (411 км)
Погода в Ла Тонтута (Новая Каледония) (418 км)
Погода в Пуандимье (Новая Каледония) (470 км)

Пояснения к столбцам:

Ветер - указаны скорость ветра в м/с - средняя за 10 мин, порывы в срок и между сроками (в фигурных скобках) и направление, откуда дует ветер: С - северный, СВ - северо-восточный, В - восточный, ЮВ - юго-восточный, Ю - южный, ЮЗ - юго-западный, З - западный, СЗ - северо-западный.
Видимость - горизонтальная дальность видимости в метрах или километрах. При видимости от 1 до 10 км при отсутствии осадков обычно наблюдается дымка, при ухудшении видимости до 1 км и менее - туман. В сухую погоду видимость может ухудшаться дымом, пылью или мглою.
Явления - указаны атмосферные явления, наблюдавшиеся в срок или в последний час перед сроком; фигурными скобками обозначены явления, наблюдавшиеся между сроками (за 1-3 часа до срока); квадратными скобками обозначены град или гололедные отложения с указанием их диаметра в мм.
Облачность - указаны через наклонную черту общая и нижняя облачность в баллах и высота нижней границы облаков в метрах; квадратными скобками обозначены формы облаков: Ci - перистые, Cs - перисто-слоистые, Cc - перисто-кучевые, Ac - высококучевые, As - высокослоистые, Sc - слоисто-кучевые, Ns - слоисто-дождевые, Cu - кучевые, Cb - кучево-дождевые. Подробнее классификацию облаков см. в Атласе облаков (PDF).
T - Температура воздуха - температура, измеренная на высоте 2 м над землей.
Td - Температура точки росы - температура, при понижении до которой содержащийся в воздухе водяной пар достигнет насыщения.
f - Относительная влажность воздуха - влажноcть воздуха, измеренная на высоте 2 м над землей.
Te - Эффективная температура - температура, которую ощущает одетый по сезону человек в тени. Характеристика душности погоды. При расчете учитывается влияние влажности воздуха и скорости ветра на теплоощущения человека.
Tes - Эффективная температура на солнце - температура, которую ощущает человек, с поправкой на солнечный нагрев. Характеристика знойности погоды. Зависит от высоты солнца над горизонтом, облачности и скорости ветра. Ночью, в пасмурную погоду, а также при ветре 12 м/с и более поправка равна нулю.
P - Атмосферное давление - приведенное к уровню моря атмосферное давление.
Po - Атмосферное давление - измеренное на уровне метеостанции атмосферное давление.
Tmin - Минимальная температура - минимум температуры воздуха на высоте 2 м над землей.
Tmax - Максимальная температура - максимум температуры воздуха на высоте 2 м над землей.
R - Количество осадков - Количество выпавших осадков за период времени, мм. При наведении курсора мыши на число - период времени, за который выпало указанное количество осадков.
R24 - Количество осадков - Количество выпавших осадков за 24 часа, мм.
S - Снежный покров - Высота снежного покрова, см. При наведении курсора мыши на число - состояние снежного покрова и степень покрытия местности в баллах.